This demonstration page uses our WeatherBlox Daily Observations layout. Learn more.

Left ArrowRight Arrow

Hourly Observations for July 21, 2018

Temp ( °F °C ) Dew Point ( °F °C ) Humidity (%) Winds ( mph kmh ) Pressure ( in mb ) Visibility ( mi km ) Precip ( " mm )
12:53 am 00:53 Clear 84 28.9 46 7.8 27 27 SSE 9 15 29.85 1011 10 16 0.00 0.00
1:53 am 01:53 Clear 80 26.7 47 8.3 31 31 SE 8 13 29.87 1011 10 16 0.00 0.00
2:53 am 02:53 Clear 78 25.6 48 8.9 35 35 ESE 7 11 29.86 1011 10 16 0.00 0.00
3:53 am 03:53 Clear 79 26.1 48 8.9 34 34 ESE 9 15 29.85 1011 10 16 0.00 0.00
4:53 am 04:53 Clear 77 25 49 9.4 37 37 ESE 6 9 29.85 1011 10 16 0.00 0.00
5:53 am 05:53 Clear 76 24.4 49 9.4 39 39 ESE 8 13 29.86 1011 10 16 0.00 0.00
6:53 am 06:53 Clear 74 23.3 50 10 43 43 ESE 5 7 29.88 1012 10 16 0.00 0.00
7:53 am 07:53 Sunny 74 23.3 51 10.6 45 45 E 5 7 29.89 1012 10 16 0.00 0.00
8:53 am 08:53 Sunny 80 26.7 54 12.2 41 41 SE 12 19 29.89 1012 10 16 0.00 0.00
9:53 am 09:53 Sunny 86 30 53 11.7 32 32 SSE 14 22 29.90 1012 10 16 0.00 0.00
10:53 am 10:53 Sunny 90 32.2 55 12.8 31 31 SE 12 19 29.90 1013 10 16 0.00 0.00
11:53 am 11:53 Sunny 94 34.4 52 11.1 24 24 SSE 14 22 29.89 1012 10 16 0.00 0.00
12:53 pm 12:53 Sunny 97 36.1 51 10.6 21 21 SE 10 17 29.88 1012 10 16 0.00 0.00
1:53 pm 13:53 Sunny 100 37.8 49 9.4 18 18 SSE 12 19 29.87 1012 10 16 0.00 0.00
2:53 pm 14:53 Sunny 102 38.9 48 8.9 16 16 SSE 12 19 29.85 1011 10 16 0.00 0.00
3:53 pm 15:53 Sunny 102 38.9 46 7.8 15 15 ESE 16 26 29.83 1010 10 16 0.00 0.00
4:53 pm 16:53 Sunny 104 40 42 5.6 12 12 S 9 15 29.81 1010 10 16 0.00 0.00
5:53 pm 17:53 Sunny 102 38.9 47 8.3 15 15 SE 17 28 29.80 1009 10 16 0.00 0.00
6:53 pm 18:53 Sunny 101 38.3 47 8.3 16 16 SSE 15 24 29.80 1009 10 16 0.00 0.00
7:53 pm 19:53 Sunny 99 37.2 48 8.9 18 18 SSE 14 22 29.80 1009 10 16 0.00 0.00
8:53 pm 20:53 Sunny 95 35 48 8.9 20 20 SE 10 17 29.82 1010 10 16 0.00 0.00
9:53 pm 21:53 Clear 91 32.8 46 7.8 21 21 SE 8 13 29.84 1010 10 16 0.00 0.00
10:53 pm 22:53 Clear 87 30.6 45 7.2 23 23 SE 9 15 29.86 1011 10 16 0.00 0.00
11:53 pm 23:53 Clear 86 30 47 8.3 26 26 SSE 12 19 29.87 1012 10 16 0.00 0.00

Powered by AerisWeather